Regional Weather Roundup
Issued by NWS

Home | Current Version | Previous Version | Graphics & Text | Print | Product List | Glossary Off
Versions: 1 2 3 4 5 6 7 8 9 10 11 12 13 14 15 16 17 18 19 20 21 22 23 24 25 26 27 28 29 30 31 32 33 34 35 36 37 38 39 40 41 42 43 44 45 46 47 48 49 50

000
ASUS43 KTOP 310759
RWRKS

WEATHER ROUNDUP FOR KANSAS
NATIONAL WEATHER SERVICE GOODLAND KS
300 AM CDT THU JUL 31 2014

NOTE:  "FAIR" INDICATES FEW OR NO CLOUDS BELOW 12,000 FEET WITH NO
SIGNIFICANT WEATHER AND/OR OBSTRUCTIONS TO VISIBILITY.

KSZ001>006-013>018-027>032-041>047-310900-
NORTHWEST KANSAS

CITY           SKY/WX    TMP DP  RH WIND       PRES   REMARKS
GOODLAND       PTCLDY    58  55  90 W7        30.25F
HAYS           PTCLDY    59  54  82 W5        30.16F
HILL CITY      PTCLDY    58  53  84 CALM      30.17F
RUSSELL        PTCLDY    61  58  90 W7        30.14F
$$

KSZ061>065-074>080-084>089-310900-
SOUTHWEST KANSAS

CITY           SKY/WX    TMP DP  RH WIND       PRES   REMARKS
DODGE CITY     PTCLDY    59  55  87 W6        30.20F
ELKHART          N/A     58  56  94 W3          N/A
GARDEN CITY    CLEAR     57  55  93 W5        30.22S
GREAT BEND     PTCLDY    61  55  82 NW6       30.15F
LIBERAL        CLEAR     57  52  82 NW7       30.24F
$$

KSZ066>073-081>083-090>101-310900-
SOUTHEAST KANSAS

CITY           SKY/WX    TMP DP  RH WIND       PRES   REMARKS
CHANUTE        FOG       63  62  97 CALM      30.10S VSB 1/4
COFFEYVILLE    CLOUDY    66  65  96 N5        30.08S FOG
HUTCHINSON     FOG       57  55  93 CALM      30.13F VSB 1/4
NEWTON         PTCLDY    61  54  77 N3        30.16S
PARSONS        FOG       63  61  93 CALM      30.10S VSB 3/4
WICHITA INTL   PTCLDY    61  59  93 NW5       30.12F FOG
WICHITA JABRA  PTCLDY    61  61 100 N5        30.12S
WINFIELD       CLEAR     64  64 100 N5        30.11F
$$

KSZ007>012-019>026-033>040-048>060-102>105-310900-
NORTHEAST KANSAS

CITY           SKY/WX    TMP DP  RH WIND       PRES   REMARKS
CONCORDIA      PTCLDY    56  54  93 CALM      30.13S
EMPORIA        FOG       58  58 100 NW5       30.11S VSB 1/2
LAWRENCE       PTCLDY    57  54  89 NW5       30.10S
MANHATTAN      PTCLDY    59  57  93 CALM      30.12S
OLATHE IND     CLEAR     61  59  93 NW5       30.11S
OLATHE EXE     CLEAR     63  59  87 CALM      30.09S
SALINA         MOCLDY    62  57  83 NW5       30.14S
TOPEKA BILLARD PTCLDY    59  56  89 CALM      30.11S
TOPEKA FORBES  PTCLDY    57  55  93 CALM      30.11S
$$



USA.gov is the U.S. government's official web portal to all federal, state and local government web resources and services.